| time (UTC) | temp F | wind direction | speed MPH | gust MPH | rain 1hr in | rain 24hr in | rain mn in | humidity % | barometer mb |
| 20260508053026 | 49 | 300 | 1.0 | 6.0 | 0.00 | 0.00 | 0.00 | 67 | 1016.1 |
| 20260508051525 | 49 | 293 | 0.0 | 3.0 | 0.00 | 0.00 | 0.00 | 68 | 1015.9 |
| 20260508050024 | 49 | 342 | 0.0 | 2.0 | 0.00 | 0.00 | 0.00 | 72 | 1015.5 |
| 20260508044517 | 49 | 338 | 0.0 | 4.0 | 0.00 | 0.00 | 0.00 | 73 | 1015.6 |
| 20260508043016 | 49 | 329 | 0.0 | 3.0 | 0.00 | 0.00 | 0.00 | 72 | 1015.5 |
| 20260508041512 | 50 | 355 | 0.0 | 0.0 | 0.00 | 0.00 | 0.00 | 70 | 1015.4 |
| 20260508040011 | 51 | 346 | 0.0 | 2.0 | 0.00 | 0.00 | 0.00 | 71 | 1015.1 |
| 20260508034507 | 51 | 15 | 1.0 | 4.0 | 0.00 | 0.00 | 0.00 | 69 | 1015.1 |
| 20260508033003 | 52 | 329 | 1.0 | 5.0 | 0.00 | 0.00 | 0.00 | 67 | 1015.0 |
| 20260508031502 | 52 | 326 | 1.0 | 5.0 | 0.00 | 0.00 | 0.00 | 68 | 1014.7 |
| 20260508030058 | 53 | 5 | 1.0 | 5.0 | 0.00 | 0.00 | 0.00 | 67 | 1014.6 |
| 20260508024559 | 54 | 351 | 1.0 | 6.0 | 0.00 | 0.00 | 0.00 | 62 | 1014.4 |
| 20260508023056 | 53 | 296 | 2.0 | 5.0 | 0.00 | 0.00 | 0.00 | 64 | 1014.2 |
| 20260508021554 | 53 | 304 | 1.0 | 4.0 | 0.00 | 0.00 | 0.00 | 64 | 1014.0 |
| 20260508020053 | 54 | 360 | 0.0 | 5.0 | 0.00 | 0.00 | 0.00 | 64 | 1013.8 |
| 20260508014549 | 54 | 307 | 1.0 | 5.0 | 0.00 | 0.00 | 0.00 | 62 | 1013.7 |
| 20260508013046 | 54 | 338 | 0.0 | 5.0 | 0.00 | 0.00 | 0.00 | 64 | 1013.4 |
| 20260508011545 | 54 | 327 | 1.0 | 9.0 | 0.00 | 0.00 | 0.00 | 66 | 1013.1 |
| 20260508010043 | 55 | 314 | 0.0 | 3.0 | 0.00 | 0.00 | 0.00 | 66 | 1013.1 |
| 20260508004541 | 55 | 344 | 1.0 | 4.0 | 0.00 | 0.00 | 0.00 | 63 | 1012.8 |
| 20260508003040 | 56 | 107 | 0.0 | 2.0 | 0.00 | 0.00 | 0.00 | 62 | 1012.6 |
| 20260508001539 | 57 | 14 | 1.0 | 3.0 | 0.00 | 0.00 | 0.00 | 62 | 1012.6 |
| 20260508000037 | 57 | 270 | 3.0 | 9.0 | 0.00 | 0.00 | 0.00 | 60 | 1012.3 |
| 20260507234538 | 58 | 36 | 1.0 | 8.0 | 0.00 | 0.00 | 0.00 | 62 | 1012.2 |
| 20260507233038 | 59 | 14 | 1.0 | 8.0 | 0.00 | 0.00 | 0.00 | 59 | 1011.8 |
| 20260507231537 | 60 | 155 | 2.0 | 8.0 | 0.00 | 0.00 | 0.00 | 57 | 1011.6 |
| 20260507230035 | 60 | 234 | 2.0 | 13.0 | 0.00 | 0.00 | 0.00 | 57 | 1011.8 |
| 20260507224536 | 59 | 42 | 2.0 | 10.0 | 0.00 | 0.00 | 0.00 | 60 | 1011.4 |
| 20260507223034 | 60 | 355 | 1.0 | 13.0 | 0.00 | 0.00 | 0.00 | 62 | 1011.3 |
| 20260507221534 | 61 | 12 | 3.0 | 10.0 | 0.00 | 0.00 | 0.00 | 60 | 1011.1 |
| 20260507220032 | 64 | 93 | 2.0 | 8.0 | 0.00 | 0.00 | 0.00 | 58 | 1010.8 |
| 20260507214534 | 64 | 47 | 1.0 | 5.0 | 0.00 | 0.00 | 0.00 | 59 | 1010.8 |
| 20260507213032 | 64 | 180 | 4.0 | 13.0 | 0.00 | 0.00 | 0.00 | 57 | 1010.5 |
| 20260507211531 | 65 | 338 | 3.0 | 8.0 | 0.00 | 0.00 | 0.00 | 61 | 1010.4 |
| 20260507210044 | 65 | 325 | 1.0 | 5.0 | 0.00 | 0.00 | 0.00 | 61 | 1010.5 |
| 20260507204527 | 65 | 82 | 1.0 | 7.0 | 0.00 | 0.00 | 0.00 | 70 | 1010.2 |
| 20260507203022 | 63 | 159 | 2.0 | 7.0 | 0.00 | 0.00 | 0.00 | 73 | 1010.1 |
| 20260507201521 | 62 | 56 | 3.0 | 7.0 | 0.00 | 0.00 | 0.00 | 75 | 1010.2 |
| 20260507200019 | 61 | 115 | 1.0 | 8.0 | 0.00 | 0.00 | 0.00 | 77 | 1010.5 |
| 20260507194518 | 59 | 157 | 4.0 | 7.0 | 0.00 | 0.00 | 0.00 | 79 | 1010.9 |
| 20260507193016 | 59 | 146 | 4.0 | 8.0 | 0.00 | 0.00 | 0.00 | 78 | 1011.1 |
| 20260507191515 | 58 | 130 | 2.0 | 9.0 | 0.00 | 0.00 | 0.00 | 78 | 1011.5 |
| 20260507190014 | 57 | 128 | 3.0 | 7.0 | 0.00 | 0.00 | 0.00 | 78 | 1011.5 |
| 20260507184517 | 57 | 170 | 1.0 | 4.0 | 0.00 | 0.00 | 0.00 | 81 | 1011.9 |
| 20260507183012 | 57 | 167 | 2.0 | 3.0 | 0.00 | 0.00 | 0.00 | 79 | 1011.9 |
| 20260507181511 | 56 | 160 | 0.0 | 3.0 | 0.00 | 0.00 | 0.00 | 76 | 1011.8 |
| 20260507180009 | 56 | 197 | 0.0 | 4.0 | 0.00 | 0.00 | 0.00 | 81 | 1012.1 |
| 20260507174512 | 56 | 300 | 0.0 | 0.0 | 0.00 | 0.00 | 0.00 | 83 | 1012.1 |
| 20260507173009 | 56 | 300 | 0.0 | 4.0 | 0.00 | 0.00 | 0.00 | 79 | 1012.0 |
| 20260507171509 | 56 | 250 | 0.0 | 2.0 | 0.00 | 0.00 | 0.00 | 80 | 1012.2 |
| 20260507170010 | 56 | 355 | 0.0 | 1.0 | 0.00 | 0.00 | 0.00 | 81 | 1012.2 |
| 20260507164508 | 56 | 273 | 0.0 | 2.0 | 0.00 | 0.01 | 0.00 | 83 | 1012.4 |
| 20260507163007 | 56 | 332 | 0.0 | 3.0 | 0.00 | 0.01 | 0.00 | 84 | 1012.3 |
| 20260507161507 | 56 | 333 | 0.0 | 0.0 | 0.00 | 0.01 | 0.00 | 82 | 1012.5 |
| 20260507160008 | 56 | 333 | 0.0 | 0.0 | 0.00 | 0.01 | 0.00 | 80 | 1012.3 |
| 20260507154506 | 56 | 333 | 0.0 | 0.0 | 0.00 | 0.01 | 0.00 | 82 | 1012.7 |
| 20260507153008 | 56 | 333 | 0.0 | 2.0 | 0.00 | 0.01 | 0.00 | 82 | 1012.7 |
| 20260507151504 | 56 | 296 | 1.0 | 4.0 | 0.00 | 0.01 | 0.00 | 82 | 1012.5 |
| 20260507150002 | 56 | 281 | 0.0 | 4.0 | 0.00 | 0.01 | 0.00 | 82 | 1012.5 |
| 20260507144502 | 56 | 106 | 0.0 | 4.0 | 0.00 | 0.01 | 0.00 | 81 | 1012.5 |
| 20260507143111 | 57 | 145 | 0.0 | 3.0 | 0.00 | 0.01 | 0.00 | 82 | 1012.2 |
| 20260507141559 | 56 | 90 | 0.0 | 3.0 | 0.00 | 0.01 | 0.00 | 83 | 1012.2 |
| 20260507140057 | 57 | 323 | 1.0 | 9.0 | 0.00 | 0.01 | 0.00 | 81 | 1012.4 |
| 20260507134559 | 57 | 277 | 2.0 | 4.0 | 0.00 | 0.01 | 0.00 | 80 | 1012.7 |
| 20260507133057 | 57 | 5 | 0.0 | 4.0 | 0.00 | 0.01 | 0.00 | 80 | 1012.7 |
| 20260507131611 | 57 | 212 | 1.0 | 4.0 | 0.00 | 0.01 | 0.00 | 79 | 1012.7 |
| 20260507130052 | 57 | 16 | 0.0 | 4.0 | 0.00 | 0.01 | 0.00 | 81 | 1012.6 |
| 20260507124551 | 57 | 299 | 0.0 | 5.0 | 0.00 | 0.02 | 0.00 | 80 | 1012.6 |
| 20260507123050 | 57 | 5 | 1.0 | 3.0 | 0.00 | 0.02 | 0.00 | 82 | 1012.5 |
| 20260507121548 | 57 | 321 | 2.0 | 8.0 | 0.00 | 0.02 | 0.00 | 80 | 1012.3 |
| 20260507120047 | 57 | 182 | 0.0 | 3.0 | 0.00 | 0.02 | 0.00 | 81 | 1012.5 |
| 20260507114547 | 57 | 10 | 0.0 | 3.0 | 0.00 | 0.08 | 0.00 | 83 | 1012.2 |
| 20260507113044 | 57 | 329 | 2.0 | 5.0 | 0.00 | 0.08 | 0.00 | 83 | 1012.4 |
| 20260507111543 | 57 | 291 | 0.0 | 2.0 | 0.00 | 0.08 | 0.00 | 84 | 1012.2 |
| 20260507110041 | 57 | 332 | 0.0 | 0.0 | 0.00 | 0.08 | 0.00 | 85 | 1012.1 |
| 20260507104539 | 57 | 332 | 0.0 | 0.0 | 0.00 | 0.08 | 0.00 | 84 | 1011.9 |
| 20260507103036 | 57 | 332 | 0.0 | 2.0 | 0.00 | 0.08 | 0.00 | 84 | 1011.8 |
| 20260507101537 | 57 | 298 | 0.0 | 2.0 | 0.00 | 0.08 | 0.00 | 83 | 1011.5 |
| 20260507100036 | 57 | 341 | 0.0 | 0.0 | 0.00 | 0.08 | 0.00 | 84 | 1011.8 |
| 20260507094535 | 57 | 341 | 0.0 | 1.0 | 0.00 | 0.08 | 0.00 | 82 | 1012.0 |
| 20260507093032 | 58 | 341 | 0.0 | 2.0 | 0.00 | 0.08 | 0.00 | 81 | 1011.8 |
| 20260507091534 | 58 | 336 | 0.0 | 3.0 | 0.00 | 0.08 | 0.00 | 81 | 1011.8 |
| 20260507090029 | 59 | 28 | 0.0 | 1.0 | 0.00 | 0.08 | 0.00 | 81 | 1011.2 |
| 20260507084527 | 59 | 42 | 2.0 | 6.0 | 0.00 | 0.08 | 0.00 | 80 | 1011.6 |
| 20260507083028 | 59 | 63 | 0.0 | 9.0 | 0.00 | 0.08 | 0.00 | 82 | 1011.8 |
| 20260507081525 | 60 | 25 | 0.0 | 4.0 | 0.00 | 0.08 | 0.00 | 83 | 1011.7 |
| 20260507080030 | 60 | 148 | 1.0 | 4.0 | 0.00 | 0.08 | 0.00 | 82 | 1011.6 |
| 20260507074525 | 60 | 110 | 0.0 | 3.0 | 0.00 | 0.08 | 0.00 | 83 | 1011.6 |
| 20260507073022 | 60 | 159 | 1.0 | 5.0 | 0.00 | 0.08 | 0.00 | 82 | 1011.7 |
| 20260507071553 | 61 | 123 | 1.0 | 3.0 | 0.00 | 0.08 | 0.00 | 83 | 1011.5 |
| 20260507064521 | 61 | 146 | 2.0 | 8.0 | 0.00 | 0.08 | 0.00 | 83 | 1011.7 |
| 20260507063019 | 61 | 134 | 1.0 | 5.0 | 0.00 | 0.08 | 0.00 | 85 | 1011.5 |
| 20260507061518 | 61 | 327 | 1.0 | 4.0 | 0.00 | 0.08 | 0.00 | 86 | 1011.3 |
| 20260507060015 | 61 | 41 | 0.0 | 6.0 | 0.00 | 0.08 | 0.00 | 86 | 1011.6 |
| 20260507054514 | 60 | 103 | 0.0 | 8.0 | 0.00 | 0.08 | 0.00 | 88 | 1011.5 |